Location: Nitra
(0.0000°N, 18.0833°E)
Time: 08:45:37
(UTC+01:00)

Cosmos 1842 - Pass Details

Date: 25 September 2022
Orbit: 514 x 527 km, 82.5° (Epoch: 28 November)

Event Time Altitude Azimuth Distance (km) Brightness Sun altitude
Rises 19:27:04 0° 358° (N) 2,628 6.8 -11.9°
Reaches altitude 10° 19:29:11 10° 359° (N) 1,746 5.9 -12.5°
Maximum altitude 19:33:01 81° 85° (E) 533 3.1 -13.4°
Drops below altitude 10° 19:36:53 10° 174° (S) 1,764 5.8 -14.4°
Sets 19:39:02 0° 174° (S) 2,658 6.8 -14.9°
